CES1314 ZBAA-UHWW

Flight info

Callsign CES1314
Flight time 1h 49m
Altitude 35100
Route DOTRA5Y DOTRA B334 TGO G341 WQG B451 SANAR SANAR2M
Aircraft B77W/H-SDE1E2E3FGHIJ2J3J4J5M1RWXY/LB1D1

Departure

Time 2026-05-09 11:27
Airport Beijing Capital International Airport (ZBAA)

Arrival

Time 2026-05-09 13:16
Airport Vladivostok International Airport (UHWW)
Time Latitude Longitude Altitude Speed Heading
2026-05-09 11:02 40.07530 116.59184 123 ft 0 kts 315°
2026-05-09 11:13 40.07526 116.59188 122 ft 2 kts 315°
2026-05-09 11:13 40.07516 116.59202 122 ft 2 kts 314°
2026-05-09 11:14 40.07505 116.59216 122 ft 2 kts 315°
2026-05-09 11:14 40.07495 116.59229 122 ft 2 kts 315°
2026-05-09 11:14 40.07484 116.59243 122 ft 2 kts 309°
2026-05-09 11:14 40.07478 116.59261 122 ft 2 kts 271°
2026-05-09 11:15 40.07481 116.59279 122 ft 2 kts 239°
2026-05-09 11:15 40.07491 116.59293 122 ft 2 kts 207°
2026-05-09 11:15 40.07505 116.59297 122 ft 2 kts 176°
2026-05-09 11:15 40.07520 116.59294 122 ft 2 kts 169°
2026-05-09 11:16 40.07534 116.59291 122 ft 2 kts 173°
2026-05-09 11:16 40.07549 116.59289 122 ft 1 kts 174°
2026-05-09 11:16 40.07550 116.59288 122 ft 0 kts 174°
2026-05-09 11:22 40.07549 116.59289 122 ft 0 kts 174°
2026-05-09 11:22 40.07530 116.59291 122 ft 4 kts 173°
2026-05-09 11:22 40.07487 116.59304 122 ft 6 kts 140°
2026-05-09 11:22 40.07480 116.59373 122 ft 9 kts 98°
2026-05-09 11:23 40.07428 116.59431 122 ft 13 kts 154°
2026-05-09 11:23 40.07328 116.59497 122 ft 18 kts 170°
2026-05-09 11:23 40.07176 116.59520 122 ft 24 kts 173°
2026-05-09 11:23 40.06987 116.59550 122 ft 29 kts 173°
2026-05-09 11:24 40.06778 116.59583 122 ft 29 kts 173°
2026-05-09 11:24 40.06582 116.59614 122 ft 27 kts 173°
2026-05-09 11:24 40.06395 116.59643 122 ft 25 kts 173°
2026-05-09 11:24 40.06221 116.59670 122 ft 24 kts 173°
2026-05-09 11:25 40.06058 116.59695 122 ft 22 kts 173°
2026-05-09 11:25 40.05936 116.59714 122 ft 9 kts 173°
2026-05-09 11:25 40.05872 116.59734 122 ft 6 kts 142°
2026-05-09 11:25 40.05870 116.59794 122 ft 7 kts 84°
2026-05-09 11:26 40.05875 116.59857 122 ft 7 kts 84°
2026-05-09 11:26 40.05888 116.59936 122 ft 9 kts 50°
2026-05-09 11:26 40.05958 116.59950 122 ft 12 kts 353°
2026-05-09 11:26 40.06206 116.59911 122 ft 69 kts 353°
2026-05-09 11:27 40.06923 116.59798 123 ft 135 kts 353°
2026-05-09 11:27 40.08015 116.59624 328 ft 170 kts 354°
2026-05-09 11:27 40.09211 116.59445 943 ft 180 kts 355°
2026-05-09 11:27 40.10474 116.59251 1611 ft 187 kts 354°
2026-05-09 11:28 40.11834 116.59031 2013 ft 205 kts 354°
2026-05-09 11:28 40.13305 116.58798 2433 ft 221 kts 354°
2026-05-09 11:28 40.14891 116.58547 2896 ft 238 kts 354°
2026-05-09 11:28 40.16606 116.58277 3353 ft 256 kts 353°
2026-05-09 11:29 40.18449 116.57986 3886 ft 270 kts 352°
2026-05-09 11:29 40.20348 116.57686 4625 ft 276 kts 351°
2026-05-09 11:29 40.22263 116.57383 5314 ft 283 kts 350°
2026-05-09 11:29 40.24238 116.57071 6077 ft 286 kts 349°
2026-05-09 11:30 40.26221 116.56752 6834 ft 289 kts 348°
2026-05-09 11:30 40.28220 116.56413 7699 ft 287 kts 348°
2026-05-09 11:30 40.30185 116.56080 8490 ft 286 kts 348°
2026-05-09 11:30 40.32154 116.55746 8795 ft 287 kts 348°
2026-05-09 11:31 40.34140 116.55411 8837 ft 285 kts 348°
2026-05-09 11:31 40.36138 116.55074 8846 ft 285 kts 348°
2026-05-09 11:31 40.38096 116.54744 8849 ft 285 kts 348°
2026-05-09 11:31 40.40080 116.54408 8859 ft 285 kts 348°
2026-05-09 11:32 40.42059 116.54112 8858 ft 287 kts 353°
2026-05-09 11:32 40.44090 116.54163 9133 ft 299 kts 359°
2026-05-09 11:32 40.46144 116.54326 10149 ft 291 kts 359°
2026-05-09 11:32 40.48186 116.54482 10705 ft 301 kts 358°
2026-05-09 11:33 40.50325 116.54684 11074 ft 319 kts
2026-05-09 11:33 40.52563 116.55363 11475 ft 341 kts 14°
2026-05-09 11:33 40.56894 116.58704 12290 ft 385 kts 37°
2026-05-09 11:34 40.58929 116.61050 12854 ft 398 kts 38°
2026-05-09 11:34 40.61012 116.63454 13724 ft 403 kts 38°
2026-05-09 11:34 40.63148 116.65904 14729 ft 407 kts 37°
2026-05-09 11:34 40.65306 116.68363 15628 ft 414 kts 37°
2026-05-09 11:35 40.67510 116.70866 16443 ft 423 kts 37°
2026-05-09 11:35 40.69749 116.73405 17288 ft 431 kts 37°
2026-05-09 11:35 40.72031 116.75934 18224 ft 433 kts 33°
2026-05-09 11:35 40.74581 116.78060 19126 ft 433 kts 23°
2026-05-09 11:36 40.77341 116.79552 20008 ft 432 kts 12°
2026-05-09 11:36 40.80249 116.80389 20910 ft 430 kts
2026-05-09 11:36 40.83244 116.80653 21878 ft 429 kts 358°
2026-05-09 11:36 40.86221 116.80792 22875 ft 430 kts 358°
2026-05-09 11:37 40.89208 116.80931 23744 ft 433 kts 358°
2026-05-09 11:37 40.92208 116.81074 24483 ft 439 kts 358°
2026-05-09 11:37 40.95308 116.81226 25186 ft 444 kts 358°
2026-05-09 11:37 40.98404 116.81381 25868 ft 450 kts 358°
2026-05-09 11:38 41.01537 116.81541 26539 ft 455 kts 358°
2026-05-09 11:38 41.04710 116.81703 27180 ft 461 kts 358°
2026-05-09 11:38 41.07939 116.81870 27819 ft 466 kts 358°
2026-05-09 11:38 41.11213 116.82040 28581 ft 468 kts 358°
2026-05-09 11:39 41.14475 116.82210 29280 ft 471 kts 358°
2026-05-09 11:39 41.17793 116.82383 30030 ft 473 kts 358°
2026-05-09 11:39 41.21041 116.82555 30839 ft 471 kts 358°
2026-05-09 11:40 41.27568 116.82900 32387 ft 463 kts 358°
2026-05-09 11:40 41.30807 116.83070 33003 ft 461 kts 358°
2026-05-09 11:40 41.34032 116.83240 33515 ft 461 kts 358°
2026-05-09 11:40 41.37217 116.83407 34017 ft 461 kts 358°
2026-05-09 11:41 41.40426 116.83576 34523 ft 459 kts 358°
2026-05-09 11:41 41.43642 116.83746 34848 ft 461 kts 358°
2026-05-09 11:41 41.46878 116.83916 34927 ft 463 kts 358°
2026-05-09 11:42 41.53269 116.84255 34949 ft 460 kts 358°
2026-05-09 11:42 41.59753 116.84753 34946 ft 463 kts
2026-05-09 11:43 41.65951 116.87278 34943 ft 473 kts 22°
2026-05-09 11:43 41.71425 116.92339 34940 ft 484 kts 41°
2026-05-09 11:44 41.75536 116.99606 34941 ft 492 kts 60°
2026-05-09 11:44 41.78478 117.07999 34946 ft 494 kts 63°
2026-05-09 11:45 41.81340 117.16362 34943 ft 493 kts 63°
2026-05-09 11:45 41.84221 117.24757 34940 ft 494 kts 63°
2026-05-09 11:46 41.87100 117.33145 34938 ft 493 kts 63°
2026-05-09 11:46 41.89975 117.41532 34933 ft 494 kts 63°
2026-05-09 11:47 41.92844 117.49920 34936 ft 494 kts 63°
2026-05-09 11:47 41.95716 117.58340 34937 ft 494 kts 63°
2026-05-09 11:48 41.98610 117.66847 34935 ft 495 kts 64°
2026-05-09 11:48 42.01465 117.75264 35040 ft 492 kts 64°
2026-05-09 11:49 42.04319 117.83704 34970 ft 494 kts 64°
2026-05-09 11:49 42.07169 117.92154 34951 ft 496 kts 64°
2026-05-09 11:50 42.10015 118.00616 34974 ft 496 kts 64°
2026-05-09 11:50 42.12859 118.09097 34956 ft 496 kts 64°
2026-05-09 11:51 42.15709 118.17626 34949 ft 496 kts 64°
2026-05-09 11:51 42.18556 118.26167 34946 ft 495 kts 64°
2026-05-09 11:52 42.21579 118.34540 34945 ft 493 kts 62°
2026-05-09 11:52 42.24614 118.42841 34934 ft 492 kts 62°
2026-05-09 11:53 42.27659 118.51221 34932 ft 494 kts 62°
2026-05-09 11:53 42.30677 118.59566 34931 ft 493 kts 62°
2026-05-09 11:54 42.33713 118.67994 34922 ft 494 kts 63°
2026-05-09 11:54 42.36720 118.76371 34907 ft 493 kts 63°
2026-05-09 11:55 42.39716 118.84744 34918 ft 494 kts 63°
2026-05-09 11:56 42.48666 119.09915 34921 ft 492 kts 63°
2026-05-09 11:57 42.51631 119.18307 34912 ft 491 kts 63°
2026-05-09 11:57 42.54581 119.26678 34887 ft 490 kts 63°
2026-05-09 11:58 42.57529 119.35070 34896 ft 491 kts 63°
2026-05-09 11:58 42.60470 119.43468 34901 ft 489 kts 63°
2026-05-09 11:59 42.63391 119.51832 34909 ft 486 kts 63°
2026-05-09 11:59 42.66266 119.60093 34888 ft 484 kts 63°
2026-05-09 12:00 42.69160 119.68428 34916 ft 485 kts 64°
2026-05-09 12:00 42.72015 119.76681 34886 ft 481 kts 64°
2026-05-09 12:01 42.74858 119.84920 34920 ft 482 kts 64°
2026-05-09 12:01 42.77716 119.93230 34902 ft 480 kts 64°
2026-05-09 12:02 42.80535 120.01450 34877 ft 476 kts 64°
2026-05-09 12:02 42.83335 120.09641 34880 ft 477 kts 64°
2026-05-09 12:03 42.86126 120.17828 34886 ft 475 kts 64°
2026-05-09 12:03 42.88929 120.26074 34888 ft 477 kts 64°
2026-05-09 12:04 42.91721 120.34313 34906 ft 478 kts 64°
2026-05-09 12:04 42.94508 120.42564 34893 ft 475 kts 64°
2026-05-09 12:05 42.97304 120.50834 34899 ft 479 kts 63°
2026-05-09 12:05 43.00213 120.58951 34911 ft 477 kts 63°
2026-05-09 12:06 43.03151 120.67154 34903 ft 478 kts 63°
2026-05-09 12:06 43.06063 120.75326 34905 ft 478 kts 63°
2026-05-09 12:07 43.08999 120.83595 34908 ft 478 kts 63°
2026-05-09 12:07 43.11901 120.91801 34916 ft 478 kts 63°
2026-05-09 12:08 43.14815 121.00065 34919 ft 479 kts 63°
2026-05-09 12:08 43.17701 121.08278 34920 ft 479 kts 63°
2026-05-09 12:09 43.20613 121.16586 34922 ft 481 kts 63°
2026-05-09 12:09 43.23491 121.24828 34924 ft 480 kts 63°
2026-05-09 12:10 43.29271 121.41451 34934 ft 483 kts 63°
2026-05-09 12:11 43.32134 121.49721 34926 ft 482 kts 63°
2026-05-09 12:11 43.35023 121.58094 34930 ft 483 kts 63°
2026-05-09 12:12 43.37900 121.66455 34929 ft 483 kts 63°
2026-05-09 12:12 43.40780 121.74853 34946 ft 483 kts 63°
2026-05-09 12:13 43.43639 121.83215 34938 ft 484 kts 64°
2026-05-09 12:13 43.46497 121.91601 34950 ft 484 kts 64°
2026-05-09 12:14 43.49366 122.00042 34953 ft 485 kts 64°
2026-05-09 12:14 43.52234 122.08509 34958 ft 485 kts 64°
2026-05-09 12:15 43.55001 122.16991 34962 ft 486 kts 69°
2026-05-09 12:15 43.56320 122.26152 34972 ft 488 kts 84°
2026-05-09 12:16 43.56892 122.35471 34977 ft 488 kts 84°
2026-05-09 12:16 43.57436 122.44820 34985 ft 488 kts 84°
2026-05-09 12:17 43.57970 122.54211 34993 ft 486 kts 84°
2026-05-09 12:17 43.58486 122.63481 34991 ft 486 kts 84°
2026-05-09 12:18 43.58997 122.72832 34987 ft 487 kts 85°
2026-05-09 12:18 43.59499 122.82161 34989 ft 488 kts 85°
2026-05-09 12:19 43.59996 122.91543 34999 ft 487 kts 85°
2026-05-09 12:19 43.60482 123.00892 35005 ft 488 kts 85°
2026-05-09 12:20 43.60962 123.10266 35014 ft 488 kts 85°
2026-05-09 12:20 43.61433 123.19614 35021 ft 489 kts 85°
2026-05-09 12:21 43.62013 123.28944 35013 ft 487 kts 83°
2026-05-09 12:21 43.62628 123.38326 35029 ft 487 kts 83°
2026-05-09 12:22 43.63229 123.47701 35019 ft 487 kts 83°
2026-05-09 12:22 43.63817 123.57031 35010 ft 487 kts 83°
2026-05-09 12:23 43.64401 123.66440 35028 ft 489 kts 84°
2026-05-09 12:23 43.64965 123.75678 35029 ft 490 kts 84°
2026-05-09 12:24 43.65540 123.85216 35028 ft 489 kts 84°
2026-05-09 12:24 43.66095 123.94572 35032 ft 490 kts 84°
2026-05-09 12:25 43.66644 124.03955 35024 ft 488 kts 83°
2026-05-09 12:25 43.67184 124.13316 35024 ft 488 kts 83°
2026-05-09 12:26 43.67719 124.22713 35028 ft 487 kts 83°
2026-05-09 12:26 43.68254 124.32126 35032 ft 488 kts 83°
2026-05-09 12:27 43.68870 124.41465 35033 ft 489 kts 82°
2026-05-09 12:27 43.69482 124.50820 35030 ft 488 kts 82°
2026-05-09 12:28 43.70084 124.60189 35037 ft 489 kts 82°
2026-05-09 12:28 43.70675 124.69534 35034 ft 488 kts 82°
2026-05-09 12:29 43.71261 124.78928 35042 ft 489 kts 82°
2026-05-09 12:29 43.71841 124.88359 35046 ft 487 kts 82°
2026-05-09 12:30 43.72409 124.97736 35043 ft 487 kts 82°
2026-05-09 12:30 43.73249 125.11831 35051 ft 487 kts 82°
2026-05-09 12:31 43.74068 125.25884 35052 ft 488 kts 82°
2026-05-09 12:32 43.74605 125.35256 35055 ft 487 kts 82°
2026-05-09 12:32 43.75133 125.44605 35056 ft 489 kts 82°
2026-05-09 12:33 43.75658 125.54050 35057 ft 488 kts 82°
2026-05-09 12:33 43.76173 125.63434 35057 ft 490 kts 82°
2026-05-09 12:34 43.76681 125.72860 35061 ft 488 kts 83°
2026-05-09 12:34 43.77169 125.82284 35047 ft 490 kts 85°
2026-05-09 12:35 43.76566 125.91768 35053 ft 495 kts 96°
2026-05-09 12:35 43.75550 126.01221 35062 ft 495 kts 95°
2026-05-09 12:36 43.74633 126.10664 35063 ft 494 kts 95°
2026-05-09 12:36 43.73702 126.20097 35077 ft 495 kts 95°
2026-05-09 12:37 43.72760 126.29515 35085 ft 495 kts 95°
2026-05-09 12:37 43.71799 126.39014 35086 ft 495 kts 95°
2026-05-09 12:38 43.70833 126.48463 35084 ft 495 kts 95°
2026-05-09 12:38 43.69863 126.57865 35097 ft 494 kts 95°
2026-05-09 12:39 43.68883 126.67278 35091 ft 494 kts 96°
2026-05-09 12:39 43.67893 126.76722 35105 ft 495 kts 96°
2026-05-09 12:40 43.66893 126.86171 35109 ft 494 kts 96°
2026-05-09 12:40 43.65885 126.95624 35112 ft 495 kts 96°
2026-05-09 12:41 43.64878 127.04985 35115 ft 495 kts 96°
2026-05-09 12:41 43.63854 127.14435 35118 ft 494 kts 96°
2026-05-09 12:42 43.62824 127.23868 35114 ft 494 kts 96°
2026-05-09 12:42 43.61744 127.33299 35112 ft 494 kts 97°
2026-05-09 12:43 43.60568 127.42654 35127 ft 493 kts 97°
2026-05-09 12:43 43.59391 127.51987 35126 ft 494 kts 97°
2026-05-09 12:44 43.58199 127.61389 35125 ft 492 kts 97°
2026-05-09 12:44 43.57007 127.70751 35126 ft 494 kts 97°
2026-05-09 12:45 43.55817 127.80037 35140 ft 491 kts 97°
2026-05-09 12:45 43.54615 127.89378 35145 ft 492 kts 97°
2026-05-09 12:46 43.53409 127.98689 35144 ft 494 kts 97°
2026-05-09 12:46 43.52192 128.08015 35152 ft 492 kts 97°
2026-05-09 12:47 43.50964 128.17375 35153 ft 493 kts 97°
2026-05-09 12:47 43.49738 128.26645 35141 ft 489 kts 97°
2026-05-09 12:48 43.48546 128.35928 35141 ft 491 kts 97°
2026-05-09 12:48 43.47378 128.45193 35138 ft 490 kts 96°
2026-05-09 12:49 43.46196 128.54481 35140 ft 488 kts 97°
2026-05-09 12:49 43.45012 128.63722 35140 ft 487 kts 97°
2026-05-09 12:50 43.43824 128.72920 35142 ft 488 kts 97°
2026-05-09 12:50 43.42629 128.82120 35148 ft 486 kts 97°
2026-05-09 12:51 43.41419 128.91359 35152 ft 488 kts 97°
2026-05-09 12:51 43.40206 129.00568 35150 ft 486 kts 97°
2026-05-09 12:52 43.38984 129.09737 35154 ft 487 kts 98°
2026-05-09 12:52 43.37718 129.18933 35150 ft 488 kts 98°
2026-05-09 12:53 43.36449 129.28084 35148 ft 483 kts 98°
2026-05-09 12:53 43.35177 129.37224 35137 ft 485 kts 98°
2026-05-09 12:54 43.33895 129.46370 35120 ft 482 kts 98°
2026-05-09 12:54 43.32613 129.55467 35125 ft 484 kts 98°
2026-05-09 12:55 43.31325 129.64545 34439 ft 480 kts 98°
2026-05-09 12:55 43.30681 129.69078 33462 ft 486 kts 99°
2026-05-09 12:55 43.30030 129.73644 32596 ft 489 kts 99°
2026-05-09 12:55 43.29418 129.78244 31744 ft 488 kts 95°
2026-05-09 12:56 43.29153 129.82840 30923 ft 487 kts 91°
2026-05-09 12:56 43.28980 129.87535 30335 ft 479 kts 91°
2026-05-09 12:56 43.28816 129.92061 29860 ft 471 kts 91°
2026-05-09 12:56 43.28653 129.96483 29372 ft 463 kts 91°
2026-05-09 12:57 43.28487 130.00926 28833 ft 457 kts 91°
2026-05-09 12:57 43.28323 130.05250 28309 ft 450 kts 91°
2026-05-09 12:57 43.28160 130.09485 27794 ft 444 kts 91°
2026-05-09 12:57 43.27996 130.13680 27268 ft 438 kts 91°
2026-05-09 12:58 43.27833 130.17831 26754 ft 433 kts 91°
2026-05-09 12:58 43.27670 130.21916 26237 ft 427 kts 91°
2026-05-09 12:58 43.27508 130.25937 25723 ft 422 kts 91°
2026-05-09 12:58 43.27347 130.29929 25206 ft 417 kts 91°
2026-05-09 12:59 43.27185 130.33887 24684 ft 412 kts 90°
2026-05-09 12:59 43.27024 130.37796 24178 ft 419 kts 90°
2026-05-09 12:59 43.26859 130.41795 23655 ft 423 kts 90°
2026-05-09 12:59 43.26690 130.45805 23125 ft 421 kts 90°
2026-05-09 13:00 43.26519 130.49840 22595 ft 417 kts 90°
2026-05-09 13:00 43.26350 130.53772 22078 ft 413 kts 90°
2026-05-09 13:00 43.26183 130.57665 21558 ft 411 kts 90°
2026-05-09 13:00 43.26014 130.61559 21035 ft 409 kts 90°
2026-05-09 13:01 43.25844 130.65442 20511 ft 408 kts 91°
2026-05-09 13:01 43.25674 130.69298 19982 ft 405 kts 91°
2026-05-09 13:01 43.25503 130.73129 19460 ft 403 kts 90°
2026-05-09 13:01 43.25336 130.76862 18946 ft 401 kts 90°
2026-05-09 13:02 43.25164 130.80676 18418 ft 400 kts 90°
2026-05-09 13:02 43.24994 130.84418 17904 ft 398 kts 90°
2026-05-09 13:02 43.24821 130.88199 17374 ft 394 kts 90°
2026-05-09 13:02 43.24649 130.91922 16841 ft 391 kts 90°
2026-05-09 13:03 43.24478 130.95602 16332 ft 387 kts 90°
2026-05-09 13:03 43.24308 130.99240 15812 ft 383 kts 90°
2026-05-09 13:03 43.24137 131.02885 15299 ft 380 kts 90°
2026-05-09 13:03 43.23966 131.06483 14790 ft 376 kts 90°
2026-05-09 13:04 43.23798 131.10017 14290 ft 373 kts 91°
2026-05-09 13:04 43.23627 131.13560 13774 ft 370 kts 90°
2026-05-09 13:04 43.23459 131.17053 13268 ft 367 kts 90°
2026-05-09 13:04 43.23289 131.20515 12788 ft 364 kts 91°
2026-05-09 13:05 43.23060 131.23930 12290 ft 362 kts 92°
2026-05-09 13:05 43.22808 131.27362 11781 ft 359 kts 92°
2026-05-09 13:05 43.22563 131.30721 11298 ft 356 kts 92°
2026-05-09 13:05 43.22319 131.34099 10846 ft 353 kts 92°
2026-05-09 13:06 43.22084 131.37340 10746 ft 339 kts 92°
2026-05-09 13:06 43.21853 131.40524 10643 ft 326 kts 92°
2026-05-09 13:06 43.21636 131.43527 10512 ft 315 kts 92°
2026-05-09 13:06 43.21193 131.46431 10387 ft 307 kts 103°
2026-05-09 13:07 43.20558 131.49167 10284 ft 297 kts 104°
2026-05-09 13:07 43.19913 131.51827 10160 ft 288 kts 104°
2026-05-09 13:07 43.19291 131.54395 9918 ft 284 kts 104°
2026-05-09 13:07 43.18674 131.56958 9538 ft 285 kts 104°
2026-05-09 13:08 43.18156 131.59564 9144 ft 281 kts 90°
2026-05-09 13:08 43.18393 131.62132 8798 ft 269 kts 65°
2026-05-09 13:08 43.19159 131.64450 8400 ft 268 kts 57°
2026-05-09 13:08 43.20049 131.66707 8019 ft 267 kts 56°
2026-05-09 13:09 43.20931 131.68866 7687 ft 267 kts 56°
2026-05-09 13:09 43.21849 131.71101 7328 ft 268 kts 56°
2026-05-09 13:09 43.22768 131.73343 6968 ft 268 kts 56°
2026-05-09 13:09 43.23676 131.75560 6601 ft 269 kts 56°
2026-05-09 13:10 43.24596 131.77808 6230 ft 269 kts 57°
2026-05-09 13:10 43.25485 131.79991 5898 ft 251 kts 57°
2026-05-09 13:10 43.26318 131.82034 5568 ft 237 kts 56°
2026-05-09 13:10 43.27102 131.83952 5256 ft 226 kts 56°
2026-05-09 13:11 43.27858 131.85803 4947 ft 216 kts 56°
2026-05-09 13:11 43.28568 131.87544 4611 ft 206 kts 56°
2026-05-09 13:11 43.29255 131.89230 4315 ft 194 kts 56°
2026-05-09 13:11 43.29903 131.90817 4055 ft 186 kts 56°
2026-05-09 13:12 43.30529 131.92354 3788 ft 183 kts 56°
2026-05-09 13:12 43.31150 131.93880 3518 ft 181 kts 56°
2026-05-09 13:12 43.31767 131.95395 3247 ft 181 kts 56°
2026-05-09 13:12 43.32378 131.96896 2972 ft 180 kts 57°
2026-05-09 13:13 43.32994 131.98412 2693 ft 178 kts 57°
2026-05-09 13:13 43.33585 131.99870 2423 ft 171 kts 57°
2026-05-09 13:13 43.34139 132.01236 2173 ft 158 kts 57°
2026-05-09 13:13 43.34669 132.02541 1936 ft 154 kts 58°
2026-05-09 13:14 43.35194 132.03834 1700 ft 153 kts 58°
2026-05-09 13:14 43.35707 132.05100 1469 ft 150 kts 58°
2026-05-09 13:16 43.39158 132.13634 33 ft 136 kts 58°
2026-05-09 13:16 43.39553 132.14612 51 ft 92 kts 61°
2026-05-09 13:16 43.39780 132.15173 58 ft 48 kts 60°
2026-05-09 13:16 43.39932 132.15549 59 ft 41 kts 62°
2026-05-09 13:17 43.40066 132.15886 56 ft 37 kts 60°
2026-05-09 13:17 43.40188 132.16187 49 ft 35 kts 61°
2026-05-09 13:17 43.40303 132.16472 42 ft 33 kts 61°
2026-05-09 13:17 43.40405 132.16725 38 ft 16 kts 60°
2026-05-09 13:18 43.40433 132.16814 38 ft 8 kts 87°
2026-05-09 13:18 43.40396 132.16876 38 ft 9 kts 149°
2026-05-09 13:18 43.40340 132.16921 39 ft 9 kts 151°
2026-05-09 13:18 43.40286 132.16962 40 ft 8 kts 151°
2026-05-09 13:19 43.40225 132.17007 41 ft 11 kts 151°
2026-05-09 13:19 43.40152 132.17062 41 ft 13 kts 151°
2026-05-09 13:19 43.40099 132.17093 42 ft 6 kts 170°
2026-05-09 13:19 43.40070 132.17067 42 ft 5 kts 232°
2026-05-09 13:20 43.40047 132.17015 43 ft 7 kts 240°
2026-05-09 13:20 43.40018 132.16943 44 ft 9 kts 241°
2026-05-09 13:20 43.39984 132.16861 46 ft 10 kts 241°
2026-05-09 13:20 43.39947 132.16768 48 ft 11 kts 241°
2026-05-09 13:21 43.39908 132.16670 50 ft 11 kts 241°
2026-05-09 13:21 43.39866 132.16568 53 ft 9 kts 240°
2026-05-09 13:21 43.39835 132.16515 55 ft 5 kts 194°
2026-05-09 13:21 43.39801 132.16524 56 ft 4 kts 154°
2026-05-09 13:22 43.39773 132.16545 56 ft 3 kts 151°
2026-05-09 13:22 43.39761 132.16554 56 ft 0 kts 151°
2026-05-09 13:22 43.39760 132.16556 56 ft 0 kts 151°
2026-05-09 13:23 43.39759 132.16557 56 ft 0 kts 151°